Tracking 19181 objects as of 17-Jun-2018
HD Live streaming from Space Station
objects crossing your sky now

FENGYUN 1C DEB

Track FENGYUN 1C DEB now!
10-day predictions


NORAD ID: 36237
Int'l Code: 1999-025DVN
Perigee: 649.9 km
Apogee: 730.3 km
Inclination: 98.9 °
Period: 98.4 minutes
Semi major axis: 7061 km
RCS: 0.0136 m2 (small)
Launch date: May 10, 1999
Source: People's Republic of China (PRC)
Launch site: Taiyaun Space Center, China (TSC)

Note: This is SATELLITE DEBRIS
aabbcc
Your satellite tracking list
Your tracking list is empty




NASA's NSSDC Master Catalog

Two Line Element Set (TLE):
1 36237U 99025DVN 18167.45825140 +.00001877 +00000-0 +36779-3 0  9996
2 36237 098.9270 049.8227 0056935 260.8969 098.5786 14.63157810505546
Source of the keplerian elements: AFSPC